F4MNZ-13 Weather Reports


time (UTC)temp
F
wind
direction
speed
knots
gust
knots
rain 1hr
in
rain 24hr
in
rain mn
in
humidity
%
barometer
mb
20260510041000 48 202 0.0 1.7 0.00 0.00 0.00 94 1014.9
20260510040459 48 202 0.9 1.7 0.00 0.00 0.00 94 1015.0
20260510040000 48 202 0.0 2.6 0.00 0.00 0.00 93 1015.1
20260510035459 48 202 0.9 2.6 0.00 0.00 0.00 94 1015.0
20260510034958 48 202 1.7 2.6 0.00 0.00 0.00 93 1015.0
20260510034459 49 194 0.0 0.0 0.00 0.00 0.00 94 1015.1
20260510033958 49 194 0.0 0.9 0.00 0.00 0.00 94 1015.2
20260510032959 49 194 0.0 1.7 0.00 0.00 0.00 94 1015.2
20260510032459 49 194 0.0 1.7 0.00 0.00 0.00 93 1015.1
20260510032000 49 194 0.9 1.7 0.00 0.00 0.00 93 1015.2
20260510031501 49 194 0.0 1.7 0.00 0.00 0.00 93 1015.1
20260510030957 49 194 0.0 1.7 0.00 0.00 0.00 93 1015.3
20260510030501 49 194 0.0 1.7 0.00 0.00 0.00 93 1015.2
20260510025959 50 194 0.0 1.7 0.00 0.00 0.00 93 1015.3
20260510025456 50 175 0.9 1.7 0.00 0.00 0.00 94 1015.3
20260510024956 50 175 0.9 1.7 0.00 0.00 0.00 93 1015.3
20260510024459 50 174 0.0 1.7 0.00 0.00 0.00 93 1015.4
20260510023457 50 174 0.0 0.9 0.00 0.00 0.00 93 1015.4
20260510022957 50 188 0.9 0.9 0.00 0.00 0.00 93 1015.4
20260510022458 50 188 0.9 1.7 0.00 0.00 0.00 93 1015.4
20260510021957 50 188 0.0 1.7 0.00 0.00 0.00 93 1015.4
20260510021456 51 153 0.9 1.7 0.00 0.00 0.00 93 1015.5
20260510020957 51 153 0.0 1.7 0.00 0.00 0.00 93 1015.4
20260510020456 51 153 0.0 1.7 0.00 0.00 0.00 93 1015.5
20260510020000 51 153 0.0 1.7 0.00 0.00 0.00 93 1015.6
20260510015457 51 153 0.9 1.7 0.00 0.00 0.00 92 1015.6
20260510015001 51 231 0.0 1.7 0.00 0.00 0.00 92 1015.7
20260510014457 51 231 0.0 3.5 0.00 0.00 0.00 92 1015.7
20260510014002 51 230 0.0 3.5 0.00 0.00 0.00 92 1015.6
20260510013459 52 225 1.7 3.5 0.00 0.00 0.00 93 1015.6
20260510012959 52 248 0.9 1.7 0.00 0.00 0.00 91 1015.7
20260510012457 52 162 0.9 1.7 0.00 0.00 0.00 92 1015.7
20260510011957 52 144 1.7 1.7 0.00 0.00 0.00 92 1015.7
20260510011458 52 239 0.0 1.7 0.00 0.00 0.00 91 1015.7
20260510010959 53 202 0.0 0.9 0.00 0.00 0.00 91 1015.4
20260510010459 53 202 0.0 0.9 0.00 0.00 0.00 91 1015.4
20260510005959 53 202 0.0 0.9 0.00 0.00 0.00 91 1015.5
20260510005459 53 94 0.9 1.7 0.00 0.00 0.00 91 1015.6
20260510004958 53 94 0.0 1.7 0.00 0.00 0.00 91 1015.5
20260510004458 53 355 0.0 1.7 0.00 0.00 0.00 90 1015.6
20260510003958 53 355 0.0 1.7 0.00 0.00 0.00 90 1015.7
20260510003501 53 355 0.9 1.7 0.00 0.00 0.00 90 1015.8
20260510002458 54 196 0.0 1.7 0.00 0.00 0.00 90 1015.8
20260510001459 54 198 0.0 1.7 0.00 0.00 0.00 88 1015.9
20260510000458 54 246 0.0 1.7 0.00 0.00 0.00 87 1016.0
20260509235958 55 302 0.0 1.7 0.00 0.00 0.00 87 1016.0
20260509235500 55 264 0.9 2.6 0.00 0.00 0.00 85 1016.0
20260509234957 55 264 0.9 4.3 0.00 0.00 0.00 87 1016.0
20260509234457 56 254 0.0 4.3 0.00 0.00 0.00 87 1016.2
20260509233959 55 222 2.6 4.3 0.00 0.00 0.00 86 1016.1
20260509233457 56 226 0.9 2.6 0.00 0.00 0.00 1016.1
20260509232958 0 0.0 0.0 0.00 0.00 0.00 1016.1
20260509232457 0 0.0 0.0 0.00 0.00 0.00 1016.1
20260509231958 0 0.0 0.0 0.00 0.00 0.00 1016.2
20260509231456 0 0.0 0.0 0.00 0.00 0.00 1016.2
20260509230958 0 0.0 0.0 0.00 0.00 0.00 1016.2
20260509230456 0 0.0 0.0 0.00 0.00 0.00 1016.2
20260509225959 0 0.0 0.0 0.00 0.00 0.00 1016.2
20260509225459 55 240 0.0 0.9 0.00 0.00 0.00 85 1016.2
20260509224500 54 241 0.0 0.9 0.00 0.00 0.00 85 1016.4
20260509224002 54 244 0.0 0.9 0.00 0.00 0.00 85 1016.3
20260509223500 54 244 0.0 1.7 0.00 0.00 0.00 85 1016.2
20260509223000 54 161 0.0 1.7 0.00 0.00 0.00 85 1016.2
20260509222459 54 159 0.0 3.5 0.00 0.00 0.00 85 1016.1
20260509221959 54 159 0.9 3.5 0.00 0.00 0.00 85 1016.1
20260509221500 54 208 0.9 3.5 0.00 0.00 0.00 85 1016.0
20260509220001 54 201 0.0 2.6 0.00 0.00 0.00 85 1015.7
20260509214959 0 0.0 0.0 0.00 0.00 0.00 1015.5
20260509214458 0 0.0 0.0 0.00 0.00 0.00 1015.5
20260509214000 0 0.0 0.0 0.00 0.00 0.00 1015.5
20260509213459 0 0.0 0.0 0.00 0.00 0.00 1015.5
20260509212000 0 0.0 0.0 0.00 0.00 0.00 1015.5
20260509211458 0 0.0 0.0 0.00 0.00 0.00 1015.4
20260509211000 0 0.0 0.0 0.00 0.00 0.00 1015.4
20260509210001 0 0.0 0.0 0.00 0.00 0.00 1015.4
20260509205503 0 0.0 0.0 0.00 0.00 0.00 1015.4
20260509205000 0 0.0 0.0 0.00 0.00 0.00 1015.5
20260509204500 0 0.0 0.0 0.00 0.00 0.00 1015.5
20260509204002 0 0.0 0.0 0.00 0.00 0.00 1015.4
20260509203500 0 0.0 0.0 0.00 0.00 0.00 1015.3
20260509203000 0 0.0 0.0 0.00 0.00 0.00 1015.3
20260509202500 0 0.0 0.0 0.00 0.00 0.00 1015.3
20260509202000 0 0.0 0.0 0.00 0.00 0.00 1015.3
20260509201500 0 0.0 0.0 0.00 0.00 0.00 1015.2
20260509201001 0 0.0 0.0 0.00 0.00 0.00 1015.2
20260509200500 0 0.0 0.0 0.00 0.00 0.00 1015.2
20260509200000 0 0.0 0.0 0.00 0.00 0.00 1015.1
20260509195459 0 0.0 0.0 0.00 0.00 0.00 1014.9
20260509195000 0 0.0 0.0 0.00 0.00 0.00 1014.9
20260509194501 0 0.0 0.0 0.00 0.00 0.00 1014.8
20260509193959 0 0.0 0.0 0.00 0.00 0.00 1014.7
20260509193459 0 0.0 0.0 0.00 0.00 0.00 1014.6
20260509192959 0 0.0 0.0 0.00 0.00 0.00 1014.6
20260509192459 0 0.0 0.0 0.00 0.00 0.00 1014.4
20260509191959 0 0.0 0.0 0.00 0.00 0.00 1014.4
20260509190959 0 0.0 0.0 0.00 0.00 0.00 1014.3
20260509185959 0 0.0 0.0 0.00 0.00 0.00 1014.3
20260509185459 0 0.0 0.0 0.00 0.00 0.00 1014.2
20260509183959 0 0.0 0.0 0.00 0.00 0.00 1014.0
20260509183459 0 0.0 0.0 0.00 0.00 0.00 1013.9
20260509182500 0 0.0 0.0 0.00 0.00 0.00 1013.8
20260509181959 0 0.0 0.0 0.00 0.00 0.00 1013.7
20260509181500 0 0.0 0.0 0.00 0.00 0.00 1013.6
20260509180459 0 0.0 0.0 0.00 0.00 0.00 1013.6
20260509180000 0 0.0 0.0 0.00 0.00 0.00 1013.5
20260509175500 62 30 0.0 1.7 0.00 0.00 0.00 76 1013.6
20260509175000 62 30 0.0 1.7 0.00 0.00 0.00 76 1013.7
20260509174459 62 30 0.9 1.7 0.00 0.00 0.00 74 1013.7
20260509173959 62 30 0.0 1.7 0.00 0.00 0.00 74 1013.6
20260509173500 62 30 0.0 1.7 0.00 0.00 0.00 74 1013.7
20260509172959 62 30 0.0 0.9 0.00 0.00 0.00 74 1013.7
20260509172459 62 30 0.0 1.7 0.00 0.00 0.00 74 1013.7
20260509171959 63 30 0.0 2.6 0.00 0.00 0.00 74 1013.6
20260509171459 63 48 1.7 2.6 0.00 0.00 0.00 73 1013.6
20260509170459 63 43 0.9 3.5 0.00 0.00 0.00 72 1013.8
20260509170001 63 5 0.9 4.3 0.00 0.00 0.00 72 1014.0
20260509165459 63 285 3.5 3.5 0.00 0.00 0.00 73 1014.0
20260509164959 63 292 0.0 3.5 0.00 0.00 0.00 73 1014.0
20260509164459 63 241 1.7 6.1 0.00 0.00 0.00 72 1014.0
20260509163959 63 289 3.5 6.1 0.00 0.00 0.00 72 1013.9
20260509163459 64 283 3.5 7.0 0.00 0.00 0.00 71 1014.0
20260509162459 63 298 2.6 8.7 0.00 0.00 0.00 71 1014.0
20260509161959 64 274 6.1 8.7 0.00 0.00 0.00 70 1014.0
20260509161500 64 277 3.5 7.8 0.00 0.00 0.00 70 1014.0
20260509160959 65 299 2.6 6.1 0.00 0.00 0.00 67 1014.0
20260509160459 65 314 1.7 4.3 0.00 0.00 0.00 67 1014.0
20260509155503 65 254 1.7 3.5 0.00 0.00 0.00 66 1013.9
20260509155001 65 220 1.7 3.5 0.00 0.00 0.00 66 1013.9
20260509154458 65 226 1.7 2.6 0.00 0.00 0.00 67 1013.8
20260509153959 65 252 2.6 2.6 0.00 0.00 0.00 68 1013.7
20260509153000 64 224 1.7 2.6 0.00 0.00 0.00 71 1013.8
20260509152501 64 224 0.0 2.6 0.00 0.00 0.00 73 1013.8
20260509152001 64 221 0.9 2.6 0.00 0.00 0.00 71 1013.9
20260509151459 64 263 0.0 3.5 0.00 0.00 0.00 70 1014.1
20260509151000 63 269 1.7 3.5 0.00 0.00 0.00 70 1014.1
20260509150459 63 300 1.7 7.0 0.00 0.00 0.00 70 1014.2
20260509145959 63 303 3.5 7.0 0.00 0.00 0.00 69 1014.2
20260509145459 63 262 3.5 7.0 0.00 0.00 0.00 68 1014.2
20260509145002 63 278 1.7 7.0 0.00 0.00 0.00 68 1014.2
20260509144500 63 283 6.1 6.1 0.00 0.00 0.00 69 1014.2
20260509144001 63 314 3.5 4.3 0.00 0.00 0.00 71 1014.4
20260509143001 64 286 6.1 6.1 0.00 0.00 0.00 70 1014.5
20260509142500 64 305 1.7 4.3 0.00 0.00 0.00 68 1014.5
20260509142000 64 289 4.3 5.2 0.00 0.00 0.00 68 1014.6
20260509141459 64 278 3.5 5.2 0.00 0.00 0.00 68 1014.6
20260509140502 64 280 0.9 5.2 0.00 0.00 0.00 66 1014.8
20260509135959 64 259 0.9 5.2 0.00 0.00 0.00 66 1014.9
20260509135457 64 273 0.9 5.2 0.00 0.00 0.00 66 1014.9
20260509134958 64 290 0.9 5.2 0.00 0.00 0.00 64 1014.8
20260509134501 64 204 2.6 3.5 0.00 0.00 0.00 65 1014.9
20260509133958 64 224 1.7 5.2 0.00 0.00 0.00 64 1014.9
20260509133459 64 275 2.6 3.5 0.00 0.00 0.00 65 1014.9
20260509132958 65 279 1.7 3.5 0.00 0.00 0.00 62 1014.9
20260509132458 65 300 1.7 6.1 0.00 0.00 0.00 60 1015.0
20260509131958 65 246 1.7 6.1 0.00 0.00 0.00 60 1015.0
20260509131459 65 282 5.2 6.1 0.00 0.00 0.00 59 1014.9
20260509131000 65 267 2.6 7.0 0.00 0.00 0.00 56 1015.2
20260509130502 65 241 3.5 7.0 0.00 0.00 0.00 56 1015.2
20260509130001 65 261 2.6 6.1 0.00 0.00 0.00 56 1015.2
20260509125458 65 305 4.3 7.0 0.00 0.00 0.00 55 1015.4
20260509124500 66 238 0.9 6.1 0.00 0.00 0.00 62 1015.4
20260509123959 66 296 2.6 6.1 0.00 0.00 0.00 58 1015.5
20260509122459 65 298 3.5 4.3 0.00 0.00 0.00 56 1015.2
20260509121959 66 274 1.7 7.0 0.00 0.00 0.00 55 1015.2
20260509115958 67 58 0.9 5.2 0.00 0.00 0.00 54 1015.2
20260509115459 67 24 1.7 3.5 0.00 0.00 0.00 53 1015.2
20260509115001 67 90 0.9 3.5 0.00 0.00 0.00 53 1015.2
20260509113959 67 55 2.6 5.2 0.00 0.00 0.00 52 1015.2
20260509113458 67 71 0.9 5.2 0.00 0.00 0.00 48 1015.3
20260509112958 67 355 2.6 5.2 0.00 0.00 0.00 56 1015.5
20260509112459 67 200 0.0 5.2 0.00 0.00 0.00 52 1015.6
20260509112000 67 289 2.6 5.2 0.00 0.00 0.00 53 1015.8
20260509111459 67 9 1.7 4.3 0.00 0.00 0.00 48 1015.8
20260509111001 66 25 2.6 4.3 0.00 0.00 0.00 49 1015.8
20260509105000 66 290 3.5 7.0 0.00 0.00 0.00 45 1016.2
20260509104500 66 238 0.9 7.0 0.00 0.00 0.00 54 1016.2
20260509103959 66 254 4.3 4.3 0.00 0.00 0.00 48 1016.3
20260509103458 66 274 0.9 6.1 0.00 0.00 0.00 49 1016.1
20260509102459 66 315 1.7 4.3 0.00 0.00 0.00 52 1016.1
20260509101959 66 318 0.9 4.3 0.00 0.00 0.00 52 1016.1
20260509101459 65 24 0.9 3.5 0.00 0.00 0.00 50 1016.1
20260509100959 66 31 3.5 3.5 0.00 0.00 0.00 50 1016.2
20260509100501 66 31 3.5 3.5 0.00 0.00 0.00 50 1016.1
20260509100002 66 78 0.9 2.6 0.00 0.00 0.00 50 1016.3
20260509095459 66 78 0.9 2.6 0.00 0.00 0.00 50 1016.2
20260509095002 65 121 0.9 2.6 0.00 0.00 0.00 49 1016.2
20260509094002 64 120 1.7 2.6 0.00 0.00 0.00 57 1016.3
20260509093502 64 49 0.9 2.6 0.00 0.00 0.00 61 1016.3
20260509093002 63 69 0.9 4.3 0.00 0.00 0.00 66 1016.2
20260509092501 62 36 0.9 4.3 0.00 0.00 0.00 64 1016.2
20260509092002 62 103 1.7 4.3 0.00 0.00 0.00 63 1016.1
20260509091002 0 0.0 0.0 0.00 0.00 0.00 1016.1
20260509090459 0 0.0 0.0 0.00 0.00 0.00 1016.2
20260509090001 0 0.0 0.0 0.00 0.00 0.00 1016.3
20260509085458 0 0.0 0.0 0.00 0.00 0.00 1016.5
20260509084957 0 0.0 0.0 0.00 0.00 0.00 1016.5
20260509084458 0 0.0 0.0 0.00 0.00 0.00 1016.5
20260509083959 0 0.0 0.0 0.00 0.00 0.00 1016.4
20260509083502 0 0.0 0.0 0.00 0.00 0.00 1016.4
20260509082958 0 0.0 0.0 0.00 0.00 0.00 1016.4
20260509082458 0 0.0 0.0 0.00 0.00 0.00 1016.4
20260509082001 0 0.0 0.0 0.00 0.00 0.00 1016.4
20260509080958 0 0.0 0.0 0.00 0.00 0.00 1016.5
20260509080459 0 0.0 0.0 0.00 0.00 0.00 1016.6
20260509080001 0 0.0 0.0 0.00 0.00 0.00 1016.6
20260509075457 0 0.0 0.0 0.00 0.00 0.00 1016.6
20260509074958 0 0.0 0.0 0.00 0.00 0.00 1016.6
20260509074459 0 0.0 0.0 0.00 0.00 0.00 1016.7
20260509072959 0 0.0 0.0 0.00 0.00 0.00 1016.8
20260509072458 0 0.0 0.0 0.00 0.00 0.00 1016.9
20260509071958 0 0.0 0.0 0.00 0.00 0.00 1016.9
20260509071458 0 0.0 0.0 0.00 0.00 0.00 1016.9
20260509070958 0 0.0 0.0 0.00 0.00 0.00 1017.1
20260509070458 0 0.0 0.0 0.00 0.00 0.00 1017.2
20260509070003 48 212 0.0 1.7 0.00 0.00 0.00 88 1017.3
20260509065459 48 212 0.0 1.7 0.00 0.00 0.00 88 1017.3
20260509065000 47 212 0.9 1.7 0.00 0.00 0.00 91 1017.3
20260509064500 47 212 1.7 1.7 0.00 0.00 0.00 91 1017.3
20260509064001 47 212 0.0 1.7 0.00 0.00 0.00 88 1017.4
20260509062500 46 212 0.0 1.7 0.00 0.00 0.00 91 1017.4
20260509060500 45 212 0.0 1.7 0.00 0.00 0.00 91 1017.4
20260509060001 45 212 0.0 1.7 0.00 0.00 0.00 91 1017.3
20260509055459 45 212 0.0 1.7 0.00 0.00 0.00 90 1017.8
20260509055007 45 212 0.0 1.7 0.00 0.00 0.00 90 1017.3
20260509054458 44 212 0.0 1.7 0.00 0.00 0.00 90 1017.4
20260509053000 44 212 0.9 1.7 0.00 0.00 0.00 90 1017.3
20260509052458 44 212 1.7 1.7 0.00 0.00 0.00 90 1017.3
20260509052000 44 105 0.0 1.7 0.00 0.00 0.00 90 1017.2